Regional Weather Roundup
Issued by NWS

Home | Current Version | Previous Version | Graphics & Text | Print | Product List | Glossary Off
Versions: 1 2 3 4 5 6 7 8 9 10 11 12 13 14 15 16 17 18 19 20 21 22 23 24 25 26 27 28 29 30 31 32 33 34 35 36 37 38 39 40 41 42 43 44 45 46 47 48 49 50

000
ASUS43 KIND 270209
RWRIN

WEATHER ROUNDUP FOR INDIANA
NATIONAL WEATHER SERVICE INDIANAPOLIS IN
1000 PM EDT SUN MAR 26 2017

NOTE: "FAIR" INDICATES FEW OR NO CLOUDS BELOW 12,000 FEET WITH NO
SIGNIFICANT WEATHER AND/OR OBSTRUCTIONS TO VISIBILITY.

* - STATION DOES NOT REPORT WEATHER SUCH AS PRECIPITATION OR FOG.

+ - STATION NOT QUALITY CONTROLLED BY THE NATIONAL WEATHER SERVICE.
    USE DATA WITH CAUTION...ESPECIALLY DEWPOINT AND RELATIVE
    HUMIDITY OBSERVATIONS.

INZ001>003-010>013-019-020-270300-
NORTHWEST INDIANA

CITY           SKY/WX    TMP DP  RH WIND       PRES   REMARKS
KNOX *+        MOCLDY    52  37  58 W8        29.89R
LA PORTE +     RAIN      54  51  89 SW7       29.89R
MICHIGAN CITY+ CLOUDY    54  52  94 SW8       29.89R
MONTICELLO +   CLOUDY    55  50  85 W13       29.91R
RENSSELAER +   CLOUDY    54  52  94 SW13      29.91R
VALPARAISO     CLOUDY    55  52  89 W10       29.90R

$$

LMZ046-743>745-270300-
SOUTHERN LAKE MICHIGAN

STATION/POSITION TIME  TEMP    WIND        PRES    WAVE
                       AIR SEA DIR/SP/G            HT
                 (UTC) (F)     (DEG/KT/KT) (MB)    (FT)
BURNS HARBOR     0140   54     240/ 11/ 14 1012.5R
MICHIGAN CITY    0140   50     230/ 13/ 13   N/A

$$

INZ004-005-014>016-021>024-270300-
NORTH CENTRAL INDIANA

CITY           SKY/WX    TMP DP  RH WIND       PRES   REMARKS
GOSHEN         HVY RAIN  55  51  86 SW9       29.89R FOG
LOGANSPORT +   CLOUDY    54  50  87 SW8       29.92R
PERU/GRISSOM   PTCLDY    51  51 100 SW9       29.90R
ROCHESTER +    MOCLDY    57  54  88 SW7       29.90R
SOUTH BEND     CLOUDY    49  49 100 SW6       29.89R
WARSAW +       CLOUDY    54  52  94 SW3       29.89R

$$

INZ006>009-017-018-025>027-270300-
NORTHEAST INDIANA

CITY           SKY/WX    TMP DP  RH WIND       PRES   REMARKS
ANGOLA *+      MOCLDY    50  46  87 S5        29.89R
AUBURN +       LGT RAIN  54  52  94 CALM      29.91R
FORT WAYNE     LGT RAIN  55  52  89 W7        29.91R FOG
HUNTINGTON +   CLOUDY    54  52  95 CALM      29.91R
KENDALLVILLE + RAIN      53  53 100 S8        29.90R

$$

INZ028-029-035-036-043>045-051>053-270300-
WEST CENTRAL INDIANA

CITY           SKY/WX    TMP DP  RH WIND       PRES   REMARKS
CRAWFORDSVL +  CLOUDY    54  50  87 SW15      29.94R
GREENCASTLE +  CLOUDY    55  48  76 W6        29.95R
LAFAYETTE      CLOUDY    55  50  83 W9        29.92R
TERRE HAUTE    PTCLDY    54  47  77 SW8       29.95S

$$

INZ030>032-037>040-046>048-054>057-064-065-270300-
CENTRAL INDIANA

CITY           SKY/WX    TMP DP  RH WIND       PRES   REMARKS
CP ATTERBURY + CLOUDY    57  46  67 W7        29.96S
COLUMBUS       MOCLDY    57  52  82 SW6       29.96R
FISHERS *+     CLOUDY    55  50  82 SW8       29.94R
FRANKFORT +    CLOUDY    57  52  82 W16       29.94R
GREENWOOD *+   CLOUDY    57  49  73 W8        29.96R
INDIANAPOLIS   CLOUDY    56  49  77 SW12      29.95R
-EAGLE CREEK   CLOUDY    57  48  72 SW9       29.94R
KOKOMO +       PTCLDY    53  50  89 SW7       29.93R
MARION +       CLOUDY    55  51  87 W9        29.93R
MT COMFORT *+  MOCLDY    55  48  76 SW10      29.94S
SHELBYVILLE    CLOUDY    58  48  69 SW9       29.95R
ZIONSVILLE +   CLOUDY    55  49  81 SW13      29.94R

$$

INZ033-034-041-042-049-050-058-059-270300-
EAST CENTRAL INDIANA

CITY           SKY/WX    TMP DP  RH WIND       PRES   REMARKS
MUNCIE         CLOUDY    58  52  80 W9        29.93R
RICHMOND +     MOCLDY    54  52  94 SW8       29.95R

$$

INZ060-061-067>069-081>083-085>088-270300-
SOUTHWEST INDIANA

CITY           SKY/WX    TMP DP  RH WIND       PRES   REMARKS
EVANSVILLE     CLOUDY    55  47  74 CALM      29.99R
HUNTINGBURG *+ CLEAR     55  48  77 CALM      29.99R
WASHINGTON +   PTCLDY    55  47  74 MISG      29.97S

$$

INZ062-063-066-070>080-084-089>092-270300-
SOUTH CENTRAL AND SOUTHEAST INDIANA

CITY           SKY/WX    TMP DP  RH WIND       PRES   REMARKS
BEDFORD +      PTCLDY    57  46  67 W5        29.97R
BLOOMINGTON    CLOUDY    57  47  69 W7        29.96R
MADISON *+     CLEAR     55  54  94 W6        30.00R
NORTH VERNON + CLEAR    N/A N/A N/A W7        29.97R
SEYMOUR +      MOCLDY    55  50  82 W6        29.97R

$$




USA.gov is the U.S. government's official web portal to all federal, state and local government web resources and services.